TimeIST,TemperatureF,Dew PointF,Humidity,Sea Level PressureIn,VisibilityMPH,Wind Direction,Wind SpeedMPH,Gust SpeedMPH,PrecipitationIn,Events,Conditions,WindDirDegrees,DateUTC
12:00 AM,33.8,24.8,70,30.18,-9999.0,NE,10.4,-,N/A,,Clear,40,2013-04-03 23:00:00
12:30 AM,33.8,24.8,70,30.18,-9999.0,NE,10.4,-,N/A,,Clear,40,2013-04-03 23:30:00
1:00 AM,35,24,53,30.22,12,NNE,11.2,,,,,30,2013-04-04 00:00:00
1:00 AM,35.6,24.8,65,30.21,-9999.0,NNE,10.4,-,N/A,,Clear,30,2013-04-04 00:00:00
1:30 AM,33.8,23.0,65,30.21,-9999.0,NNE,9.2,-,N/A,,Clear,30,2013-04-04 00:30:00
2:00 AM,35.6,23.0,60,30.21,-9999.0,NNE,10.4,-,N/A,,Clear,20,2013-04-04 01:00:00
2:30 AM,35.6,23.0,60,30.21,-9999.0,NNE,11.5,-,N/A,,Clear,20,2013-04-04 01:30:00
3:00 AM,33.8,23.0,65,30.18,-9999.0,NNE,10.4,-,N/A,,Clear,30,2013-04-04 02:00:00
3:30 AM,33.8,23.0,65,30.18,-9999.0,NNE,9.2,-,N/A,,Clear,30,2013-04-04 02:30:00
4:00 AM,32.0,23.0,69,30.18,-9999.0,NNE,9.2,-,N/A,,Clear,20,2013-04-04 03:00:00
4:30 AM,33.8,23.0,65,30.18,-9999.0,NNE,11.5,-,N/A,,Clear,20,2013-04-04 03:30:00
5:00 AM,33.8,23.0,65,30.18,-9999.0,NNE,11.5,-,N/A,,Clear,20,2013-04-04 04:00:00
5:30 AM,32.0,23.0,69,30.18,-9999.0,NNE,10.4,-,N/A,,Clear,30,2013-04-04 04:30:00
6:00 AM,30.2,23.0,75,30.18,-9999.0,NNE,9.2,-,N/A,,Clear,20,2013-04-04 05:00:00
6:30 AM,30.2,23.0,75,30.18,-9999.0,North,9.2,-,N/A,,Clear,360,2013-04-04 05:30:00
7:00 AM,27,22,74,30.22,16,North,8.9,,,,Scattered Clouds,0,2013-04-04 06:00:00
7:00 AM,26.6,21.2,80,30.21,-9999.0,North,9.2,-,N/A,,Clear,360,2013-04-04 06:00:00
7:30 AM,26.6,23.0,86,30.21,-9999.0,North,10.4,-,N/A,,Clear,360,2013-04-04 06:30:00
8:00 AM,28.4,23.0,80,30.21,-9999.0,North,9.2,-,N/A,,Clear,360,2013-04-04 07:00:00
8:30 AM,32.0,24.8,75,30.21,-9999.0,North,6.9,-,N/A,,Clear,10,2013-04-04 07:30:00
9:00 AM,35.6,26.6,70,30.21,-9999.0,NNE,11.5,-,N/A,,Clear,20,2013-04-04 08:00:00
9:30 AM,37.4,28.4,70,30.21,6.2,NNE,12.7,-,N/A,,Partly Cloudy,30,2013-04-04 08:30:00
10:00 AM,39.2,28.4,65,30.21,6.2,NNE,11.5,-,N/A,,Partly Cloudy,30,2013-04-04 09:00:00
10:30 AM,41.0,30.2,65,30.21,6.2,NE,13.8,-,N/A,,Partly Cloudy,40,2013-04-04 09:30:00
11:00 AM,41.0,30.2,65,30.21,6.2,NE,13.8,-,N/A,,Partly Cloudy,50,2013-04-04 10:00:00
11:30 AM,42.8,28.4,57,30.21,6.2,NE,16.1,-,N/A,,Scattered Clouds,50,2013-04-04 10:30:00
12:00 PM,42.8,26.6,53,30.18,6.2,NE,17.3,-,N/A,,Partly Cloudy,50,2013-04-04 11:00:00
12:30 PM,44.6,23.0,43,30.21,6.2,NE,13.8,-,N/A,,Partly Cloudy,40,2013-04-04 11:30:00
1:00 PM,45,25,32,30.21,31,NNE,17.9,,,,Scattered Clouds,30,2013-04-04 12:00:00
1:00 PM,44.6,24.8,46,30.18,6.2,NNE,17.3,-,N/A,,Partly Cloudy,30,2013-04-04 12:00:00
1:30 PM,46.4,23.0,40,30.18,6.2,NE,13.8,-,N/A,,Partly Cloudy,50,2013-04-04 12:30:00
2:00 PM,46.4,21.2,37,30.18,6.2,NNE,13.8,-,N/A,,Partly Cloudy,30,2013-04-04 13:00:00
2:30 PM,46.4,21.2,37,30.18,6.2,NE,18.4,-,N/A,,Partly Cloudy,50,2013-04-04 13:30:00
3:00 PM,48.2,21.2,34,30.15,6.2,ENE,16.1,-,N/A,,Partly Cloudy,60,2013-04-04 14:00:00
3:30 PM,48.2,23.0,37,30.15,6.2,ENE,15.0,-,N/A,,Partly Cloudy,60,2013-04-04 14:30:00
4:00 PM,50.0,23.0,35,30.15,6.2,NE,16.1,-,N/A,,Partly Cloudy,40,2013-04-04 15:00:00
4:30 PM,48.2,21.2,34,30.15,6.2,ENE,13.8,-,N/A,,Partly Cloudy,60,2013-04-04 15:30:00
5:00 PM,50.0,23.0,35,30.15,6.2,NE,16.1,-,N/A,,Partly Cloudy,50,2013-04-04 16:00:00
5:30 PM,48.2,21.2,34,30.15,6.2,ENE,16.1,-,N/A,,Partly Cloudy,60,2013-04-04 16:30:00
6:00 PM,48.2,21.2,34,30.15,6.2,NE,16.1,-,N/A,,Partly Cloudy,50,2013-04-04 17:00:00
6:30 PM,48.2,21.2,34,30.15,6.2,ENE,16.1,-,N/A,,Partly Cloudy,60,2013-04-04 17:30:00
7:00 PM,48,23,24,30.17,37,NE,13.4,,,,Scattered Clouds,50,2013-04-04 18:00:00
7:00 PM,48.2,23.0,37,30.15,6.2,NE,13.8,-,N/A,,Partly Cloudy,50,2013-04-04 18:00:00
7:30 PM,46.4,24.8,43,30.15,6.2,ENE,15.0,-,N/A,,Partly Cloudy,70,2013-04-04 18:30:00
8:00 PM,44.6,23.0,43,30.18,6.2,ENE,12.7,-,N/A,,Partly Cloudy,70,2013-04-04 19:00:00
8:30 PM,42.8,23.0,46,30.18,6.2,ENE,11.5,-,N/A,,Partly Cloudy,60,2013-04-04 19:30:00
9:00 PM,42.8,23.0,46,30.21,6.2,ENE,10.4,-,N/A,,Partly Cloudy,60,2013-04-04 20:00:00
9:30 PM,41.0,23.0,49,30.21,6.2,ENE,8.1,-,N/A,,Partly Cloudy,70,2013-04-04 20:30:00
10:00 PM,39.2,28.4,65,30.21,-9999.0,ENE,9.2,-,N/A,,Clear,70,2013-04-04 21:00:00
10:30 PM,39.2,23.0,52,30.21,-9999.0,ENE,5.8,-,N/A,,Clear,60,2013-04-04 21:30:00
11:00 PM,37.4,23.0,56,30.21,-9999.0,NE,6.9,-,N/A,,Clear,50,2013-04-04 22:00:00
11:30 PM,33.8,23.0,65,30.21,-9999.0,NE,5.8,-,N/A,,Clear,40,2013-04-04 22:30:00